(432) Pythia
ephemeris date magn radius delta ra dec elong phase
Today18 Sep 202514.62.712 AU2.931 AU07h15m+22°02'67.6°20.0°
Opposition10 Jan 202612.62.660 AU1.681 AU07h35m+28°57'172.7°2.7°
(432) Pythia - 2025-09-18
astro.vanbuitenen.nl


 
-1 year
-1 month
-1 day
Now
+1 day
+1 month
+1 year

The interactive orbit chart above shows the body's path through the solar system and its position at the given date. Green and blue lines are shown perpendicular to the ecliptic plane: Green if the path is above the ecliptic plane, blue if it is below. (Left-click and drag to rotate the view; Right-click and drag to move the view; Use scroll wheel to zoom in our out.)

The orbital elements of Pythia are:

            e (Eccentricity)                : 0.1452595
            a (Semimajor axis)              : 2.3697538
            i (Inclination)                 : 12.11874
            Ω (Longitude of ascending node) : 88.72468
            ω (Argument of perihelion)      : 173.89543
            M (Mean anomaly)                : 149.46728
            Epoch                           : 2025 May 05

            L (Longitude of perihelion)     : 82.75516
            B (Latitude of perihelion)      : 1.27927
            P (Orbital period in years)     : 3.65            
        

The light curve chart below shows the estimated development of the minor planet's magnitude.


The all-sky chart below shows the path of the minor planet over the same period as the light curve. The current position is marked yellow.





The following chart shows the path of the minor planet in the next few days. The field of view is optimized for (~10x50) binoculars and finderscopes. A more printer-friendly version of the same chart can be found below.




Ephemerides:
Date       Time       RA (2000)    DEC (2000)    delta   radius  elong  phase   PA    magn
2025-09-18 00:00 UT   07 15 09.1   +22 02 15     2.931    2.712   67.6   20.0   277   14.6 
2025-09-18 13:52 UT   07 15 53.8   +22 02 15     2.924    2.712   68.0   20.1   277   14.6 
2025-09-19 00:00 UT   07 16 26.3   +22 02 15     2.918    2.712   68.3   20.1   277   14.6 
2025-09-20 00:00 UT   07 17 42.9   +22 02 16     2.905    2.712   69.0   20.2   278   14.6 
2025-09-21 00:00 UT   07 18 58.8   +22 02 17     2.892    2.712   69.7   20.3   278   14.6 
2025-09-22 00:00 UT   07 20 14.1   +22 02 18     2.879    2.712   70.4   20.4   278   14.6 
2025-09-23 00:00 UT   07 21 28.7   +22 02 19     2.866    2.712   71.1   20.5   278   14.6 
2025-09-24 00:00 UT   07 22 42.6   +22 02 21     2.853    2.712   71.7   20.6   278   14.6 
2025-09-25 00:00 UT   07 23 55.9   +22 02 24     2.840    2.711   72.4   20.7   278   14.5 
2025-09-26 00:00 UT   07 25 08.4   +22 02 27     2.826    2.711   73.2   20.7   278   14.5 
2025-09-27 00:00 UT   07 26 20.3   +22 02 32     2.813    2.711   73.9   20.8   278   14.5 
2025-09-28 00:00 UT   07 27 31.4   +22 02 37     2.799    2.711   74.6   20.9   279   14.5 
2025-09-29 00:00 UT   07 28 41.7   +22 02 44     2.786    2.711   75.3   20.9   279   14.5 
2025-09-30 00:00 UT   07 29 51.3   +22 02 52     2.773    2.710   76.0   21.0   279   14.5 
2025-10-01 00:00 UT   07 31 00.2   +22 03 01     2.759    2.710   76.7   21.1   279   14.5 
2025-10-02 00:00 UT   07 32 08.3   +22 03 12     2.745    2.710   77.4   21.1   279   14.5 
2025-10-03 00:00 UT   07 33 15.6   +22 03 24     2.732    2.710   78.2   21.2   279   14.5 
2025-10-04 00:00 UT   07 34 22.1   +22 03 38     2.718    2.710   78.9   21.2   279   14.5 
2025-10-05 00:00 UT   07 35 27.8   +22 03 54     2.704    2.709   79.6   21.3   279   14.5 
2025-10-06 00:00 UT   07 36 32.7   +22 04 12     2.691    2.709   80.4   21.3   279   14.4 
2025-10-07 00:00 UT   07 37 36.7   +22 04 32     2.677    2.709   81.1   21.4   280   14.4 
2025-10-08 00:00 UT   07 38 39.9   +22 04 54     2.663    2.709   81.9   21.4   280   14.4 
2025-10-09 00:00 UT   07 39 42.2   +22 05 18     2.649    2.708   82.6   21.5   280   14.4 
2025-10-10 00:00 UT   07 40 43.7   +22 05 45     2.635    2.708   83.4   21.5   280   14.4 
2025-10-11 00:00 UT   07 41 44.2   +22 06 14     2.621    2.708   84.1   21.5   280   14.4 
2025-10-12 00:00 UT   07 42 43.9   +22 06 47     2.607    2.708   84.9   21.5   280   14.4 
2025-10-13 00:00 UT   07 43 42.6   +22 07 22     2.593    2.707   85.7   21.6   280   14.4 
2025-10-14 00:00 UT   07 44 40.3   +22 07 60     2.579    2.707   86.4   21.6   280   14.4 
2025-10-15 00:00 UT   07 45 37.1   +22 08 41     2.565    2.707   87.2   21.6   280   14.3 
2025-10-16 00:00 UT   07 46 33.0   +22 09 25     2.551    2.706   88.0   21.6   280   14.3 
2025-10-17 00:00 UT   07 47 27.8   +22 10 13     2.537    2.706   88.8   21.6   280   14.3 
2025-10-18 00:00 UT   07 48 21.6   +22 11 05     2.523    2.706   89.6   21.6   280   14.3 


    Terminology:
            
    delta:  distance between minor planet and earth in AU
    radius: distance between minor planet and sun in AU
    magn:   magnitude (brightness) estimate    
    ra:     right ascension in hours (24h = 360deg)
    dec:    declination in degrees
    elong:  elongation in degrees (angle sun-earth-minor planet)    
    phase:  phase angle in degrees (angle sun-minor planet-earth)        
    AU:     Astronomical Unit (mean distance between earth and sun: 149597870.7 km
    

Orbital elements provided by the MPC (Minor Planet Center).
Calculations by a modified version of AAPlus, a C# implementation of the AA+ project by PJ Naughter from the algorithms presented in the book "Astronomical Algorithms" by Jean Meeus.
NGC2000 dso catalog and star labels from VizieR as provided by the Strasbourg astronomical Data Center.
Tycho2 catalog from the ESO archive.